Flag for Ukraine Weather past 2 weeks in Kyiv, Ukraine

Now
34 °F

Light rain. Low clouds.


Feels Like: 26 °F
Forecast: 36 / 53 °F
Wind: 10 mph from Northeast

Location: Kyiv

Current Time: Mar 29, 2015 at 7:38:06 PM

Latest Report: Mar 29, 2015 at 7:00 PM


Visibility: 4 mi

Pressure: 29.65 "Hg

Humidity: 93%

Dew point: 32 °F

Location of KyivLocation

Historic Weather in Kyiv — Graph

°F

Kyiv temperature yesterday

Maximum temperature yesterday: 57 °F (at 2:00 PM)
Minimum temperature yesterday: 43 °F (at 10:30 PM)
Average temperature yesterday: 51 °F

Past Weeks' High & Low Weather Summary

 TemperatureHumidityPressure
High59 °F (Mar 25, 3:00 PM)100% (Mar 20, 5:00 AM)30.83 "Hg (Mar 20, 5:00 AM)
Low21 °F (Mar 23, 5:00 AM)23% (Mar 17, 1:00 PM)29.65 "Hg (Mar 29, 6:30 PM)
Average41 °F60%30.23 "Hg
* Reported Mar 14 5:00 PM — Mar 29 6:30 PM, Kyiv, Weather by CustomWeather, © 2015

Note: Actual official high and low records may vary slightly from our data, if they occured in-between our weather recording intervals... More about our weather records

Advertising

Kyiv weather history for previous 24 hours

 ConditionsComfort  
Time TempWeatherWind HumidityBarometerVisibility
6:30 PM
Sun, Mar 29
32 °FLight rain. Ice fog.13 mph100%29.65 "Hg3 mi
6:00 PM32 °FLight snow. Ice fog.10 mph100%29.68 "Hg3 mi
5:30 PM32 °FLight snow. Ice fog.13 mph100%29.68 "Hg2 mi
5:00 PM32 °FLight snow. Ice fog.10 mph100%29.68 "Hg3 mi
4:30 PM32 °FLight snow. Ice fog.10 mph93%29.71 "Hg2 mi
4:00 PM32 °FLight snow. Ice fog.10 mph93%29.71 "Hg1 mi
3:30 PM32 °FLight snow. Ice fog.13 mph93%29.71 "Hg1 mi
3:00 PM32 °FLight snow. Ice fog.10 mph93%29.71 "Hg1 mi
2:30 PM32 °FLight snow. Ice fog.13 mph93%29.74 "Hg2 mi
2:00 PM32 °FLight snow. Ice fog.13 mph93%29.74 "Hg2 mi
1:30 PM30 °FSnow showers. Ice fog.13 mph100%29.74 "Hg1 mi
1:00 PM32 °FSnow showers. Partly sunny.13 mph93%29.77 "Hg1 mi
12:30 PM32 °FLight snow. Ice fog.13 mph93%29.77 "Hg1 mi
12:00 PM32 °FSnow. Ice fog.15 mph93%29.77 "Hg1 mi
11:30 AM32 °FLight snow. Ice fog.13 mph93%29.80 "Hg2 mi
11:00 AM32 °FLight snow. Ice fog.17 mph87%29.80 "Hg3 mi
10:30 AM32 °FLight snow. Overcast.17 mph93%29.80 "Hg4 mi
10:00 AM32 °FLow clouds.17 mph93%29.80 "HgN/A
9:30 AM32 °FLight snow. Mostly cloudy.17 mph87%29.80 "Hg4 mi
9:00 AM32 °FLight snow. Ice fog.17 mph93%29.83 "Hg2 mi
8:30 AM32 °FLight snow. Ice fog.17 mph93%29.83 "Hg1 mi
8:00 AM32 °FLight freezing rain. Ice fog.20 mph93%29.83 "Hg2 mi
7:30 AM32 °FLight freezing rain. Ice fog.20 mph93%29.83 "Hg2 mi
7:00 AM32 °FLight freezing rain. Ice fog.17 mph93%29.83 "Hg2 mi
6:30 AM32 °FLight snow. Ice fog.17 mph93%29.83 "Hg2 mi
6:00 AM32 °FLight rain. Ice fog.20 mph93%29.86 "Hg1 mi
5:30 AM32 °FLight rain. Ice fog.22 mph93%29.86 "Hg1 mi
5:00 AM32 °FRain. Ice fog.20 mph100%29.86 "Hg1 mi
4:30 AM34 °FLight rain. Mostly cloudy.17 mph93%29.89 "Hg2 mi
4:00 AM36 °FLight rain. Mostly cloudy.15 mph87%29.89 "Hg4 mi
2:30 AM36 °FLight rain. Mostly cloudy.17 mph93%29.89 "HgN/A
2:00 AM37 °FLight rain. Mostly cloudy.17 mph87%29.89 "HgN/A
1:30 AM37 °FLight rain. Mostly cloudy.17 mph93%29.89 "HgN/A
1:00 AM39 °FLight rain. Mostly cloudy.13 mph87%29.89 "HgN/A
12:30 AM43 °FLight rain. Overcast.15 mph71%29.89 "HgN/A
12:00 AM43 °FLight rain. Overcast.8 mph81%29.89 "HgN/A
11:30 PM
Sat, Mar 28
43 °FSprinkles. Partly cloudy.6 mph81%29.89 "HgN/A
10:30 PM43 °FSprinkles. Partly cloudy.15 mph81%29.92 "HgN/A
10:00 PM45 °FSprinkles. Partly cloudy.17 mph66%29.92 "HgN/A
9:30 PM48 °FPassing clouds.15 mph54%29.92 "HgN/A
9:00 PM48 °FClear.17 mph54%29.92 "Hg10 mi
8:30 PM48 °FPartly cloudy.20 mph54%29.92 "HgN/A
8:00 PM48 °FPartly cloudy.15 mph58%29.92 "HgN/A
7:30 PM50 °FPartly cloudy.17 mph54%29.92 "HgN/A
7:00 PM50 °FPartly cloudy.15 mph54%29.92 "HgN/A
Weather by CustomWeather, © 2015

See weather overviewHow to use our weather pages